www.pogodaiklimat.ru

Погода и климат >> Архив погоды >> Россия >> Хабаровский край >> Улья


ПОГОДА в Улье

  • Прогноз погоды в Улье
  • Монитор погоды в Улье

АРХИВ ПОГОДЫ в Улье

Время (UTC), дата Ветер
(напр.,м/с)
 
Видим.   Явления Облачность Т
(С)
Тd
(С)
f
(%)
Тe
(С)
Тes
(С)
Комфортность P
(гПа)
Po
(гПа)
Тmin
(С)
Tmax
(С)
R
(мм)
R24
(мм)
S
(см)
00 19.06 С 2 50 км слаб. дождь 10/10 600 м
[Sc]
+13.4 +11.5 88 +13 +13 1007.8 1007.2
03 19.06 С 1 20 км в посл. час дождь 10/10 600 м
[Sc]
+13.4 +11.5 88 +14 +14 1008.6 1008.0
06 19.06 штиль 0 10 км слаб. дождь 10/10 600 м
[Frnb Ns]
+14.0 +12.3 89 +14 +14 1009.0 1008.4
09 19.06 штиль 0 10 км слаб. дождь 10/10 600 м
[Frnb Ns]
+13.1 +12.0 93 +13 +13 1009.8 1009.2 +14.4 2
12 19.06 С 1 50 км {дождь} 10/5 600 м
[Sc Ac As]
+11.2 +10.4 95 +11 +11 1010.2 1009.6
15 19.06 штиль 0 50 км 10/5 600 м
[Sc Ac As]
+9.8 +9.0 95 +9 +9 1010.0 1009.4
18 19.06 ЮЗ 3 50 км 10/5 600 м
[Sc Ac As]
+9.5 +8.5 93 +7 +7 1009.3 1008.7
21 19.06 З 4 50 км 9/5 600 м
[Sc Ac trans]
+9.8 +8.6 92 +7 +8 1008.9 1008.3 +9.5 0.0
00 20.06 СВ 2 20 км 9/3 600 м
[Sc Ac trans]
+11.2 +10.0 92 +10 +14 1009.3 1008.7
03 20.06 С 3 20 км 9/0
[Ac trans]
+11.0 +8.8 86 +9 +15 1009.4 1008.8
06 20.06 С 3 50 км 8/0
[Ac trans]
+10.2 +8.4 89 +8 +12 1009.9 1009.3
09 20.06 СВ 2 20 км 10/4 600 м
[Sc Ac trans]
+8.8 +7.3 90 +7 +7 1010.3 1009.7 +11.4
12 20.06 штиль 0 20 км 10/10 600 м
[Sc]
+7.8 +6.5 91 +7 +7 1011.3 1010.7
15 20.06 штиль 0 20 км 10/10 600 м
[Sc]
+7.1 +5.8 91 +6 +6 1011.4 1010.8
18 20.06 штиль 0 500 м туман ?/? +6.5 +5.6 94 +5 +5 1011.8 1011.2
21 20.06 штиль 0 10 км в посл. час туман 10/10 600 м
[Sc]
+7.8 +6.7 93 +7 +7 1012.4 1011.8 +6.4
00 21.06 штиль 0 10 км {туман} 10/10 600 м
[Sc]
+8.4 +7.1 92 +7 +7 1013.2 1012.6
03 21.06 СВ 1 10 км слаб. морось 10/10 600 м
[St]
+8.6 +7.3 92 +8 +8 1013.8 1013.2
06 21.06 СВ 1 10 км слаб. морось 10/10 600 м
[St]
+8.2 +7.1 93 +7 +7 1014.6 1014.0
09 21.06 штиль 0 10 км слаб. дождь {морось} 10/10 600 м
[Frnb Ns]
+7.8 +6.9 94 +7 +7 1015.8 1015.2 +8.8 1
12 21.06 штиль 0 10 км слаб. дождь 10/10 600 м
[Frnb Ns]
+7.7 +6.8 94 +7 +7 1017.3 1016.7
15 21.06 штиль 0 10 км слаб. дождь 10/10 600 м
[Frnb Ns]
+7.2 +6.3 94 +6 +6 1017.7 1017.1
18 21.06 штиль 0 10 км слаб. дождь 10/10 600 м
[Frnb Ns]
+7.0 +6.1 94 +6 +6 1017.8 1017.2
21 21.06 СВ 1 10 км {дождь} 10/10 600 м
[Frnb Ns]
+7.2 +6.3 94 +6 +6 1018.1 1017.5 +7.0 3
00 22.06 штиль 0 10 км {дождь} 10/10 600 м
[Frnb Ns]
+7.3 +6.6 95 +6 +6 1018.7 1018.1
03 22.06 штиль 0 10 км в посл. час морось 10/10 600 м
[St]
+7.6 +1.6 66 +7 +7 1018.9 1018.3
06 22.06 штиль 0 20 км {морось} 10/5 600 м
[St Ac trans]
+8.1 +6.8 91 +7 +10 1018.7 1018.1
09 22.06 штиль 0 20 км 10/8 600 м
[Sc Ac trans]
+8.0 +6.3 89 +7 +7 1018.5 1017.9 +7.6 0.0
12 22.06 Ю 2 20 км 10/10 600 м
[Sc]
+7.7 +6.4 91 +6 +6 1018.7 1018.1
15 22.06 штиль 0 20 км 10/10 600 м
[Sc]
+7.2 +6.5 95 +6 +6 1018.0 1017.4
18 22.06 штиль 0 50 км 10/8 600 м
[Sc Ac trans]
+6.6 +5.0 90 +6 +6 1017.5 1016.9
21 22.06 штиль 0 50 км 9/8 600 м
[Sc Ac trans]
+8.2 +6.5 89 +7 +8 1017.3 1016.7 +6.6
00 23.06 Ю 5 50 км 8/5 600 м
[Sc Ac trans]
+8.8 +6.2 84 +5 +7 1017.2 1016.6
03 23.06 З 7 50 км 8/1 600 м
[Sc Ac trans]
+9.0 +5.7 80 +5 +7 1016.8 1016.2
06 23.06 З 9-10
{10}
50 км 6/1 600 м
[Sc Ac trans Ci fib]
+10.4 +6.6 77 +6 +7 1015.9 1015.3
09 23.06 Ю 8
{10}
20 км 8/4 600 м
[Sc Ac trans]
+9.2 +5.9 80 +5 +5 1015.8 1015.2 +10.8
12 23.06 ЮЗ 4 20 км 10/6 600 м
[Sc Ac trans]
+8.6 +5.7 82 +6 +6 1016.9 1016.3
15 23.06 Ю 1 20 км 10/10 600 м
[Sc]
+6.2 +3.6 83 +5 +5 1017.0 1016.4
18 23.06 штиль 0 20 км 10/10 600 м
[Sc]
+6.0 +3.4 83 +5 +5 1017.2 1016.6
21 23.06 штиль 0 10 км слаб. морось 10/10 600 м
[St]
+7.2 +5.9 91 +6 +6 1017.6 1017.0 +6.0 0.0
00 24.06 штиль 0 10 км слаб. морось 10/10 600 м
[St]
+7.8 +6.5 91 +7 +7 1018.0 1017.4
03 24.06 штиль 0 10 км слаб. морось 10/10 300 м
[St]
+8.0 +6.9 93 +7 +7 1018.4 1017.8
06 24.06 Ю 1 10 км слаб. морось 10/10 300 м
[St]
+8.2 +7.1 93 +7 +7 1018.6 1018.0
09 24.06 штиль 0 10 км слаб. морось 10/10 300 м
[St]
+8.0 +7.1 94 +7 +7 1019.2 1018.6 +8.3 0.3
12 24.06 штиль 0 10 км слаб. морось 10/10 300 м
[St]
+7.6 +6.7 94 +7 +7 1019.7 1019.1
15 24.06 штиль 0 10 км слаб. морось 10/10 300 м
[St]
+7.2 +6.5 95 +6 +6 1019.1 1018.5
18 24.06 штиль 0 10 км слаб. морось 10/10 300 м
[St]
+7.0 +6.3 95 +6 +6 1018.6 1018.0
21 24.06 штиль 0 10 км слаб. морось 10/10 300 м
[St]
+7.5 +7.1 97 +6 +6 1018.3 1017.7 +6.9 0.6
00 25.06 штиль 0 4000 м слаб. морось 10/10 300 м
[St]
+8.3 +7.7 96 +7 +7 1018.0 1017.4
03 25.06 Ю 2 20 км {морось} 10/8 600 м
[St Ac trans]
+9.6 +8.2 91 +8 +9 1017.6 1017.0
06 25.06 Ю 2 50 км {морось} 8/4 600 м
[St Ac trans]
+10.2 +7.9 86 +9 +12 1017.2 1016.6
09 25.06 штиль 0 50 км 10/10 600 м
[Sc]
+8.7 +6.5 86 +8 +8 1017.5 1016.9 +10.4 0.0
12 25.06 штиль 0 20 км 10/10 600 м
[Sc]
+7.7 +5.9 88 +7 +7 1018.4 1017.8
15 25.06 штиль 0 20 км 10/10 600 м
[Sc]
+7.0 +5.4 90 +6 +6 1017.3 1016.7
18 25.06 штиль 0 20 км 10/10 600 м
[St]
+6.6 +7.6 100 +5 +5 1016.0 1015.4
21 25.06 С 1 50 км 6/3 600 м
[Sc Ac trans]
+9.3 +6.3 82 +9 +11 1014.2 1013.6 +6.6

 

Местоположение метеостанции Улья (Хабаровский край, Россия): широта 58.80 долгота 141.80 высота над уровнем моря 5 м.

В архиве по умолчанию представлена погода в Улье за последнюю неделю. Архивные данные за месяц целиком и за предыдущие месяцы, начиная с января 2011 года, Вы можете получить, выбрав интересующий диапазон дат из раскрывающегося списка и нажав кнопку "Ввод!".


*Определитесь, кто Вы:
робот инопланетянин человек

Внимание! Время в таблицах - всемирное. Для получения местного времени необходимо прибавить поправку, которая равна 10 ч.

Смотрите также архив погоды в соседних городах и на ближайших метеорологических станциях:

Погода в Охотске (Хабаровский край, Россия) (101 км)
Погода в Арке (Хабаровский край, Россия) (145 км)
Погода в Уеге (Хабаровский край, Россия) (219 км)
Погода в Югоренке (Якутия, Россия) (262 км)
Погода в Аяне (Хабаровский край, Россия) (342 км)
Погода в Нелькане (Хабаровский край, Россия) (357 км)
Погода в Усть-Юдоме (Якутия, Россия) (386 км)
Погода в Талоне (Магаданская область, Россия) (401 км)
Погода на Острове Спафарьева (Магаданская область, Россия) (414 км)
Погода в Усть-Мае (Якутия, Россия) (451 км)

Пояснения к столбцам:

Ветер - указаны скорость ветра в м/с - средняя за 10 мин, порывы в срок и между сроками (в фигурных скобках) и направление, откуда дует ветер: С - северный, СВ - северо-восточный, В - восточный, ЮВ - юго-восточный, Ю - южный, ЮЗ - юго-западный, З - западный, СЗ - северо-западный.
Видимость - горизонтальная дальность видимости в метрах или километрах. При видимости от 1 до 10 км при отсутствии осадков обычно наблюдается дымка, при ухудшении видимости до 1 км и менее - туман. В сухую погоду видимость может ухудшаться дымом, пылью или мглою.
Явления - указаны атмосферные явления, наблюдавшиеся в срок или в последний час перед сроком; фигурными скобками обозначены явления, наблюдавшиеся между сроками (за 1-3 часа до срока); квадратными скобками обозначены град или гололедные отложения с указанием их диаметра в мм.
Облачность - указаны через наклонную черту общая и нижняя облачность в баллах и высота нижней границы облаков в метрах; квадратными скобками обозначены формы облаков: Ci - перистые, Cs - перисто-слоистые, Cc - перисто-кучевые, Ac - высококучевые, As - высокослоистые, Sc - слоисто-кучевые, Ns - слоисто-дождевые, Cu - кучевые, Cb - кучево-дождевые. Подробнее классификацию облаков см. в Атласе облаков (PDF).
T - Температура воздуха - температура, измеренная на высоте 2 м над землей.
Td - Температура точки росы - температура, при понижении до которой содержащийся в воздухе водяной пар достигнет насыщения.
f - Относительная влажность воздуха - влажноcть воздуха, измеренная на высоте 2 м над землей.
Te - Эффективная температура - температура, которую ощущает одетый по сезону человек в тени. Характеристика душности погоды. При расчете учитывается влияние влажности воздуха и скорости ветра на теплоощущения человека.
Tes - Эффективная температура на солнце - температура, которую ощущает человек, с поправкой на солнечный нагрев. Характеристика знойности погоды. Зависит от высоты солнца над горизонтом, облачности и скорости ветра. Ночью, в пасмурную погоду, а также при ветре 12 м/с и более поправка равна нулю.
P - Атмосферное давление - приведенное к уровню моря атмосферное давление.
Po - Атмосферное давление - измеренное на уровне метеостанции атмосферное давление.
Tmin - Минимальная температура - минимум температуры воздуха на высоте 2 м над землей.
Tmax - Максимальная температура - максимум температуры воздуха на высоте 2 м над землей.
R - Количество осадков - Количество выпавших осадков за период времени, мм. При наведении курсора мыши на число - период времени, за который выпало указанное количество осадков.
R24 - Количество осадков - Количество выпавших осадков за 24 часа, мм.
S - Снежный покров - Высота снежного покрова, см. При наведении курсора мыши на число - состояние снежного покрова и степень покрытия местности в баллах.